EXPLORER 27

导读

EXPLORER 27(探险者27号,BE-C,信标探索者-C),是美国NASA探险者计划的卫星,于1965年4月29日8时发射,任务为磁层研究。它属于美国早期空间科学探测任务,延续了探险者系列对地球空间环境的探索方向,该卫星在轨运行至1973年7月20日,为人类认识地球磁层提供了早期科学数据,推动了空间物理领域的研究发展。

基本信息
目录编号:
1328
目录名称:
EXPLORER 27
国际标识:
1965-032A
轨道中心:
EARTH
卫星名称:
EXPLORER 27
卫星全名:
--
卫星状态:
在轨 (已飞行22356 天)
发射日期:
1965-04-29 UTC
国别 :
美国 (US)
星等 :
--
轨道信息
数据来源 国际轨道数据 AOE轨道数据
星历时间 2026-07-14T00:16:55+0800
15小时前
查看轨道信息
2026-07-14T09:00:00+0800
6小时前
查看轨道信息
半长轴 7491.404km 7491.411km
偏心率 0.0240311 0.0240087
轨道倾角 41.183° 41.182°
近地点辐角 83.655° 85.650°
升交点赤经 263.931° 262.377°
平近点角 279.151° 229.957°
近地点 933.24km 933.414km
远地点 1293.294km 1293.134km
周期 107.549分钟 107.549分钟
每日圈数 13.389303 13.389285
详细信息
使用方式:
暂无
2D轨道图
3D轨道图
轨道高度分析图
轨道倾角分析图
轨道综合分析图
查看轨道综合分析图